EW1732 Weather Reports


Display with metric or nautical units.
time (UTC)temp
F
wind
direction
speed
MPH
gust
MPH
rain 1hr
in
rain 24hr
in
rain mn
in
humidity
%
barometer
mb
20260901060603 67 337 0.0 0.0 0.52 0.22 0.23 97 1017.4
20260901055533 67 337 0.0 0.0 0.45 0.11 0.10 97 1017.5
20260901054538 67 337 0.0 0.0 0.06 0.09 0.08 97 1017.5
20260901053522 67 337 0.0 0.0 0.13 0.07 0.06 97 1017.5
20260901052537 67 337 0.0 0.0 0.18 0.05 0.04 97 1017.7
20260901051536 67 338 0.0 0.0 0.00 0.02 0.01 97 1017.7
20260901045416 67 337 0.0 0.0 0.00 0.02 0.01 96 1017.7
20260901044409 67 337 0.0 0.0 0.00 0.02 0.01 96 1017.8
20260901043426 68 338 0.0 0.0 0.00 0.01 0.00 96 1017.9
20260901042421 67 337 0.0 0.0 0.00 0.01 0.00 96 1017.8
20260901041443 68 338 0.0 0.0 0.00 0.01 0.00 96 1017.9
20260901040443 68 338 0.0 0.0 0.00 0.01 0.00 96 1018.0
20260901035452 68 337 0.0 0.0 0.00 0.01 0.01 96 1018.1
20260901034442 68 337 0.0 0.0 0.00 0.01 0.01 96 1017.9
20260901031153 68 338 0.0 0.0 0.00 0.01 0.01 96 1018.2
20260901030154 68 337 0.0 0.0 0.00 0.01 0.01 96 1018.3
20260901024022 68 337 0.0 0.0 0.00 0.00 0.00 95 1018.4
20260901021909 68 337 0.0 0.0 0.00 0.00 0.00 95 1018.5
20260901015734 68 338 0.0 0.0 0.00 0.02 0.00 95 1018.5
20260901014745 68 337 0.0 0.0 0.00 0.02 0.00 95 1018.5
20260901013715 68 337 0.0 0.0 0.00 0.02 0.00 95 1018.5
20260901012733 68 338 0.0 0.0 0.00 0.02 0.00 95 1018.5
20260901011722 68 337 0.0 0.0 0.00 0.02 0.00 95 1018.6
20260901010708 68 337 0.0 0.0 0.00 0.02 0.00 95 1018.7
20260901005721 68 337 0.0 0.0 0.00 0.02 0.00 94 1018.6
20260901003501 68 338 0.0 0.0 0.00 0.04 0.00 94 1018.5
20260901002458 68 337 0.0 0.0 0.00 0.04 0.00 94 1018.5
20260901001434 68 338 0.0 0.0 0.00 0.04 0.00 94 1018.4
20260901000458 68 337 0.0 0.0 0.00 0.04 0.00 94 1018.4
20260831235511 68 337 0.0 0.0 0.00 0.04 0.00 93 1018.3
20260831233412 68 337 0.0 0.0 0.00 0.04 0.00 92 1018.5
20260831232423 68 337 0.0 0.0 0.00 0.04 0.00 92 1018.6
20260831231422 69 337 0.0 0.0 0.00 0.04 0.00 91 1018.7
20260831225321 70 338 0.0 0.0 0.00 0.04 0.00 87 1018.9
20260831224259 70 5 0.0 0.0 0.00 0.04 0.00 86 1019.0
20260831223301 71 328 0.0 0.0 0.00 0.04 0.00 83 1019.0
20260831222257 71 45 0.0 0.0 0.00 0.04 0.00 83 1019.0
20260831221236 71 45 0.0 0.0 0.00 0.04 0.00 82 1018.8
20260831220219 71 45 0.0 0.0 0.00 0.04 0.00 80 1018.7
20260831215203 72 45 0.0 0.0 0.00 0.04 0.00 79 1018.7
20260831214207 72 45 0.0 0.0 0.00 0.04 0.00 79 1018.7
20260831213149 72 45 0.0 0.0 0.00 0.04 0.00 78 1018.7
20260831212139 72 45 0.0 0.0 0.00 0.04 0.00 78 1018.7
20260831210432 73 45 0.0 0.0 0.00 0.04 0.00 77 1018.6
20260831205418 73 45 0.0 0.0 0.00 0.04 0.00 77 1018.7
20260831204425 73 121 0.0 0.0 0.00 0.04 0.00 76 1018.7
20260831203438 73 121 0.0 0.0 0.00 0.04 0.00 74 1018.6
20260831202434 74 86 0.0 0.0 0.00 0.04 0.00 76 1018.6
20260831201433 74 345 0.0 0.0 0.00 0.04 0.00 75 1018.7
20260831200448 74 345 0.0 0.0 0.00 0.04 0.00 75 1018.7
20260831194241 75 338 0.0 0.0 0.00 0.04 0.00 74 1019.2
20260831193259 76 338 0.0 0.0 0.00 0.04 0.00 74 1019.1
20260831192251 76 338 0.0 0.0 0.00 0.04 0.00 73 1019.1
20260831184929 76 131 0.0 0.0 0.00 0.04 0.00 70 1019.7
20260831183954 75 77 0.0 0.0 0.00 0.04 0.00 75 1019.6
20260831182935 75 76 0.0 0.0 0.00 0.04 0.00 76 1019.5
20260831180742 75 129 0.0 0.0 0.00 0.04 0.00 76 1019.8
20260831175712 75 128 0.0 0.0 0.00 0.04 0.00 77 1020.0
20260831174722 75 128 0.0 0.0 0.00 0.04 0.00 74 1020.1
20260831173703 76 128 0.0 0.0 0.00 0.04 0.00 73 1020.3
20260831172630 76 135 0.0 0.0 0.00 0.04 0.00 73 1020.0
20260831171607 76 136 0.0 0.0 0.00 0.04 0.00 72 1020.0
20260831170626 76 126 0.0 0.0 0.00 0.04 0.00 73 1019.8
20260831165624 77 102 0.0 0.0 0.00 0.04 0.00 72 1020.0
20260831164633 77 145 0.0 1.0 0.00 0.04 0.00 71 1020.0
20260831163617 77 140 0.0 1.0 0.00 0.04 0.00 70 1020.1
20260831162554 76 103 0.0 2.0 0.00 0.04 0.00 71 1020.1
20260831160403 75 138 0.0 0.0 0.00 0.04 0.00 72 1020.5
20260831155343 76 68 0.0 1.0 0.00 0.04 0.00 73 1020.6
20260831154359 77 233 0.0 0.0 0.00 0.04 0.00 73 1020.5
20260831153404 76 134 0.0 0.0 0.00 0.04 0.00 72 1020.5
20260831152352 74 145 0.0 0.0 0.00 0.04 0.00 76 1020.5
20260831151411 74 18 0.0 0.0 0.00 0.04 0.00 74 1020.6
20260831145152 74 274 0.0 0.0 0.00 0.04 0.00 76 1020.5
20260831144210 73 109 0.0 3.0 0.00 0.04 0.00 78 1020.5
20260831143231 72 81 0.0 3.0 0.00 0.04 0.00 80 1020.7
20260831142243 71 143 0.0 1.0 0.00 0.04 0.00 81 1020.6
20260831140028 69 82 0.0 1.0 0.00 0.04 0.00 87 1020.5
20260831135047 69 74 0.0 0.0 0.00 0.04 0.00 88 1020.4
20260831132908 68 229 0.0 0.0 0.00 0.04 0.00 92 1020.5
20260831131859 67 214 0.0 2.0 0.00 0.04 0.00 93 1020.4
20260831130905 67 219 0.0 0.0 0.00 0.04 0.00 96 1020.5
20260831125926 66 219 0.0 0.0 0.00 0.04 0.00 97 1020.4
20260831124929 66 210 0.0 0.0 0.00 0.04 0.00 98 1020.4
20260831123908 66 248 0.0 0.0 0.00 0.04 0.00 98 1020.5
20260831122907 65 249 0.0 0.0 0.00 0.04 0.00 98 1020.5
20260831120821 64 241 0.0 1.0 0.00 0.04 0.00 98 1020.5
20260831115836 64 200 0.0 0.0 0.00 0.04 0.00 98 1020.4
20260831114804 63 195 0.0 0.0 0.00 0.04 0.00 98 1020.3
20260831113829 63 195 0.0 0.0 0.00 0.04 0.00 98 1020.2
20260831112830 62 195 0.0 0.0 0.00 0.04 0.00 98 1020.3
20260831111819 62 195 0.0 0.0 0.00 0.04 0.00 98 1020.2
20260831105702 62 195 0.0 0.0 0.00 0.04 0.00 98 1019.8
20260831104718 62 195 0.0 0.0 0.00 0.04 0.00 98 1019.8
20260831103712 62 195 0.0 0.0 0.00 0.04 0.00 98 1019.7
20260831102737 62 195 0.0 0.0 0.00 0.04 0.00 98 1019.5
20260831101736 62 196 0.0 0.0 0.00 0.04 0.00 98 1019.4
20260831095636 62 136 0.0 0.0 0.00 0.04 0.00 98 1019.4
20260831093552 62 136 0.0 0.0 0.00 0.04 0.00 98 1019.3
20260831092559 62 136 0.0 0.0 0.00 0.04 0.00 98 1019.4
20260831091543 62 253 0.0 0.0 0.00 0.04 0.00 98 1019.3
20260831090523 62 253 0.0 0.0 0.00 0.04 0.00 98 1019.5
20260831085546 62 253 0.0 0.0 0.00 0.04 0.00 98 1019.3
20260831084520 62 257 0.0 0.0 0.00 0.04 0.00 98 1019.3
20260831083456 62 257 0.0 0.0 0.00 0.04 0.00 97 1019.3
20260831081408 62 257 0.0 0.0 0.00 0.04 0.00 97 1019.6
20260831080345 62 257 0.0 0.0 0.00 0.04 0.00 97 1019.2
20260831075343 63 257 0.0 0.0 0.00 0.04 0.00 97 1019.4
20260831074334 63 257 0.0 0.0 0.00 0.04 0.00 97 1019.4
20260831072134 63 257 0.0 0.0 0.00 0.04 0.00 97 1019.2
20260831065937 63 257 0.0 0.0 0.00 0.04 0.00 97 1019.2
20260831063902 64 257 0.0 0.0 0.00 0.04 0.00 97 1019.2
20260831062921 64 257 0.0 0.0 0.00 0.04 0.00 97 1019.1